Ketchikan, AK

2:29 AM AKST on January 21, 2019 (GMT -0900)
Ketchikan International

Weather History for PAKT - November, 2018

Change the Weather History Date:

Sunday, November 11, 2018

  Actual Average Record
Temperature  
Mean Temperature 44 °F -  
Max Temperature 46 °F 45 °F 58 °F (1953)
Min Temperature 42 °F 35 °F 13 °F (1973)
Degree Days  
Heating Degree Days 21    
Moisture  
Dew Point 40 °F    
Average Humidity 88    
Maximum Humidity 96    
Minimum Humidity 76    
Precipitation  
Precipitation 0.00 in - - ()
Sea Level Pressure  
Sea Level Pressure 30.44 in    
Wind  
Wind Speed 5 mph (SE)    
Max Wind Speed 7 mph    
Max Gust Speed -    
Visibility 10 miles    
Events      
Averages and records for this station are not official NWS values.
T = Trace of Precipitation, MM = Missing Value Source: NWS Daily Summary

Daily Weather History Graph

Daily Weather History Graph

Search for Another Location

Airport or City:

Astronomy

Nov. 11, 2018 Rise Set
Actual Time 7:12 AM AKST 3:48 PM AKST
Civil Twilight 6:32 AM AKST 4:28 PM AKST
Nautical Twilight 5:47 AM AKST 5:13 PM AKST
Astronomical Twilight 5:04 AM AKST 5:56 PM AKST
Moon 11:18 AM AKST (11/11) 6:55 PM AKST (11/11)
Length of Visible Light 9h 56m
Length of Day
8h 35m
Waxing Crescent, 17% of the Moon is Illuminated
Nov 11
Waxing Crescent
Nov 15
First Quarter
Nov 22
Full
Nov 29
Last Quarter
Dec 6
New

Hourly Weather History & Observations

Time (AKST) Temp. Windchill Dew Point Humidity Pressure Visibility Wind Dir Wind Speed Gust Speed Precip Events Conditions
12:53 AM 42.1 °F 39.2 °F 39.9 °F 92% 30.48 in 10.0 mi SE 4.6 mph - N/A   Mostly Cloudy
1:05 AM 42.1 °F 39.2 °F 39.9 °F 92% 30.47 in 10.0 mi SE 4.6 mph - N/A   Overcast
1:12 AM 42.1 °F 39.2 °F 39.9 °F 92% 30.47 in 10.0 mi SE 4.6 mph - N/A   Overcast
1:20 AM 42.1 °F 38.4 °F 39.9 °F 92% 30.47 in 10.0 mi SSE 5.8 mph - N/A   Overcast
1:53 AM 42.1 °F 40.2 °F 41.0 °F 96% 30.47 in 10.0 mi SE 3.5 mph - N/A   Overcast
2:53 AM 43.0 °F 40.3 °F 41.0 °F 93% 30.47 in 10.0 mi SSE 4.6 mph - N/A   Overcast
3:53 AM 43.0 °F 40.3 °F 39.9 °F 89% 30.45 in 10.0 mi SE 4.6 mph - N/A   Overcast
4:53 AM 43.0 °F 41.3 °F 39.9 °F 89% 30.46 in 10.0 mi SSE 3.5 mph - N/A   Overcast
5:53 AM 43.0 °F 40.3 °F 39.9 °F 89% 30.45 in 10.0 mi SE 4.6 mph - N/A   Overcast
6:02 AM 43.0 °F 39.5 °F 39.9 °F 89% 30.45 in 10.0 mi ESE 5.8 mph - N/A   Overcast
6:53 AM 42.8 °F 41.1 °F 39.2 °F 87% 30.45 in 10.0 mi South 3.5 mph - N/A   Overcast
7:53 AM 42.8 °F 41.1 °F 39.2 °F 87% 30.45 in 10.0 mi SE 3.5 mph - N/A   Overcast
8:53 AM 42.8 °F 38.6 °F 39.2 °F 87% 30.45 in 10.0 mi SE 6.9 mph - N/A   Overcast
9:53 AM 44.6 °F 41.4 °F 41.0 °F 87% 30.45 in 10.0 mi SE 5.8 mph - N/A   Scattered Clouds
10:53 AM 44.6 °F 43.1 °F 41.0 °F 87% 30.46 in 10.0 mi South 3.5 mph - N/A   Overcast
11:53 AM 44.6 °F - 41.0 °F 87% 30.46 in 10.0 mi Calm Calm - N/A   Overcast
12:53 PM 46.4 °F 43.5 °F 39.2 °F 76% 30.45 in 10.0 mi SE 5.8 mph - N/A   Overcast
1:53 PM 46.4 °F 44.3 °F 39.2 °F 76% 30.44 in 10.0 mi SE 4.6 mph - N/A   Partly Cloudy
2:53 PM 44.6 °F 42.2 °F 39.2 °F 81% 30.42 in 10.0 mi SE 4.6 mph - N/A   Partly Cloudy
3:53 PM 44.6 °F 41.4 °F 39.2 °F 81% 30.41 in 10.0 mi SE 5.8 mph - N/A   Clear
4:53 PM 42.8 °F 39.3 °F 39.2 °F 87% 30.41 in 10.0 mi SE 5.8 mph - N/A   Clear
5:53 PM 42.1 °F 39.2 °F 39.0 °F 89% 30.40 in 10.0 mi SSE 4.6 mph - N/A   Clear
6:53 PM 42.1 °F 39.2 °F 39.0 °F 89% 30.41 in 10.0 mi SSE 4.6 mph - N/A   Clear
7:53 PM 42.1 °F 39.2 °F 39.0 °F 89% 30.38 in 10.0 mi SE 4.6 mph - N/A   Clear
8:53 PM 43.0 °F 40.3 °F 39.9 °F 89% 30.38 in 10.0 mi ESE 4.6 mph - N/A   Mostly Cloudy
9:53 PM 43.0 °F 40.3 °F 39.0 °F 86% 30.38 in 10.0 mi SE 4.6 mph - N/A   Clear
10:53 PM 42.1 °F 39.2 °F 39.0 °F 89% 30.38 in 10.0 mi SE 4.6 mph - N/A   Clear
11:53 PM 43.0 °F 38.8 °F 39.0 °F 86% 30.38 in 10.0 mi SE 6.9 mph - N/A   Clear